Location: Gajan
(43.0218°N, 1.1244°E)
Time: 16:20:09
(UTC+00:00)

S3M - Pass Details

Date: 22 April 2021
Orbit: 949 x 1004 km, 83.0° (Epoch: 12 May)

Event Time Altitude Azimuth Distance (km) Brightness Sun altitude
Exits shadow 22:05:25 64° 74° (ENE) 1,105 4.1 -29.2°
Drops below altitude 10° 22:11:23 10° 13° (NNE) 2,787 6.9 -29.7°
Sets 22:13:56 0° 11° (N) 3,738 7.7 -29.9°
